Temperature
18 18 18 18 18 18 18 18 18 19 19 18 18 17 17 17 17 17 16 17 17 16 16 16 16 16 16 16 15 15 15 15 15 15 15 15 15 14
17 18 18 18 18 18 17 17 17 18 18 18 17 17 17 17 17 17 16 16 16 16 16 16 16 16 16 16 15 15 15 15 15 15 15 15 14 14
17 17 17 17 17 17 17 17 17 17 17 18 17 17 17 16 16 16 16 16 16 16 16 16 16 16 16 16 15 15 15 15 15 15 15 14 14 14
17 17 17 17 17 17 17 17 17 17 17 17 17 17 16 16 16 16 16 16 16 16 16 16 16 16 16 16 15 15 15 15 15 15 15 14 14 14
17 17 17 17 17 17 17 17 17 17 16 17 17 16 16 16 16 16 16 16 16 16 16 16 16 16 15 15 15 15 15 15 15 14 14 14 14 14
17 17 17 16 16 16 17 16 16 16 16 16 16 16 16 16 16 16 16 16 15 15 15 15 15 15 15 15 15 15 15 15 14 14 14 14 14 14
17 16 16 17 17 16 16 16 16 16 16 16 16 16 16 16 16 16 16 15 15 15 15 15 15 15 15 15 15 15 14 14 14 14 14 14 13 13
16 16 16 16 16 16 16 16 16 16 16 16 16 16 15 15 15 15 15 15 15 15 15 15 15 15 15 14 14 14 14 14 14 14 14 13 13 13
16 16 16 16 16 16 16 16 16 16 15 15 15 15 15 15 15 15 15 15 15 15 14 14 15 14 14 14 14 14 14 14 14 14 13 13 13 13
16 16 16 16 15 15 15 15 15 15 15 15 15 15 15 15 15 15 14 14 14 14 14 14 14 14 14 14 14 14 14 13 13 13 13 13 13 13
16 16 16 15 15 15 15 15 15 15 15 15 15 15 15 15 14 14 14 14 14 14 14 14 14 14 14 14 14 13 13 13 13 13 13 13 12 12
16 15 15 15 15 15 15 15 14 14 14 14 14 14 14 14 14 14 14 14 14 14 14 13 14 13 14 14 13 13 13 13 13 12 12 12 12 12
15 15 15 15 15 15 15 14 14 14 14 14 14 14 14 14 14 14 13 13 13 13 13 13 13 13 13 13 13 13 13 12 12 12 12 12 12 12
15 15 15 15 15 15 14 14 14 14 14 14 14 14 14 13 13 13 13 13 13 13 13 12 12 12 12 13 13 13 12 12 12 12 11 11 11 11
15 15 15 14 14 14 14 14 14 14 13 13 13 13 13 13 13 13 13 13 13 13 13 12 12 12 12 12 12 12 12 12 11 11 11 11 11 11
14 14 14 14 14 13 13 13 13 13 13 13 13 13 13 13 13 13 13 12 13 13 13 12 12 12 11 11 11 11 11 11 11 11 11 10 10 10
14 14 14 14 14 14 13 13 13 13 13 13 13 13 13 13 12 12 12 12 12 12 12 12 12 11 11 11 11 11 11 11 11 10 10 10 10 10
13 13 13 13 13 13 13 13 12 12 12 12 12 12 12 12 12 12 12 12 12 12 11 11 11 11 11 11 11 11 10 10 10 10 10 10 10 10
13 13 13 13 13 13 13 12 12 12 12 12 12 12 11 11 11 11 11 11 11 11 11 11 11 11 11 11 11 10 10 10 10 10 10 10 10 10
13 13 13 13 13 12 12 12 12 12 11 11 11 11 11 11 11 11 11 10 11 11 11 10 10 10 10 10 10 10 10 9 9 9 9 9 9 9
13 13 13 12 12 12 12 11 11 11 11 11 11 10 10 10 10 10 10 10 10 10 10 10 10 10 9 9 9 9 9 9 9 8 8 8 9 9
12 12 12 12 12 11 11 11 11 11 10 10 10 10 10 10 10 10 10 10 9 9 9 9 9 9 9 9 9 9 9 8 8 8 8 8 8 8
12 12 11 11 11 11 11 11 10 10 10 10 10 9 9 9 9 9 9 9 9 9 9 9 9 9 9 8 8 8 8 8 8 8 8 8 8 8
Wind_Speed
5 5 5 4 4 4 4 5 5 5 4 3 3 2 3 2 3 5 5 6 8 8 7 7 7 7 6 6 6 6 6 6 6 6 7 7 8 8
5 5 5 5 4 4 5 5 5 6 6 3 3 3 2 3 4 5 5 6 9 9 8 8 8 8 8 7 7 7 7 7 7 7 7 7 7 8
6 5 6 5 5 5 5 5 5 6 6 5 4 2 4 5 3 5 6 6 7 10 9 9 9 9 8 8 8 8 8 8 8 8 8 7 8 9
6 5 6 5 5 6 5 5 5 5 7 7 5 4 5 5 5 6 6 6 6 8 10 10 9 9 9 9 9 9 9 9 9 9 9 9 9 9
6 5 5 5 5 5 5 6 6 6 6 7 7 4 5 4 5 6 6 5 7 6 9 10 10 10 10 10 10 10 10 9 9 9 10 10 9 9
6 6 5 5 5 5 5 6 6 6 6 7 7 6 5 4 5 6 6 6 6 6 5 7 10 12 12 11 10 10 10 10 10 10 10 11 11 10
6 6 5 4 4 5 5 5 5 6 6 7 7 6 5 4 5 6 6 5 5 5 5 6 6 7 8 11 11 10 10 11 11 11 11 11 11 11
6 6 5 5 5 5 5 5 6 7 7 7 7 6 6 6 5 6 6 6 6 4 5 6 6 6 6 6 7 9 10 11 11 10 11 11 11 11
6 6 6 5 5 6 5 7 7 8 8 9 9 9 7 6 7 8 7 7 7 5 5 7 6 7 6 5 7 9 10 11 11 10 10 11 11 11
7 7 6 6 6 5 6 6 7 7 8 8 8 9 8 7 7 8 8 8 7 7 6 7 6 6 6 5 8 10 10 10 10 10 10 11 11 12
6 6 6 6 3 3 6 6 7 7 6 7 8 8 7 7 7 6 6 7 7 6 5 6 6 6 6 6 7 12 12 12 11 11 11 11 11 11
5 5 5 5 3 3 6 6 7 6 6 5 5 7 8 7 9 8 7 7 7 6 4 5 6 5 5 5 5 5 8 10 12 13 12 11 10 8
5 4 3 4 4 5 7 7 7 7 7 6 5 5 4 4 5 6 6 7 7 7 4 4 6 6 6 6 5 5 5 5 6 8 11 12 11 9
6 5 3 3 5 6 6 6 6 7 6 5 5 5 5 5 4 5 5 7 7 8 7 6 6 6 7 7 7 6 5 5 5 6 6 8 11 12
5 3 2 4 6 6 8 8 7 6 6 6 6 6 5 5 5 4 5 6 8 9 8 7 7 7 7 8 8 7 6 6 6 6 6 6 6 6
7 5 6 8 8 6 5 6 6 5 6 6 6 6 5 5 5 5 6 5 6 6 6 7 8 8 8 8 8 7 7 7 6 6 6 6 7 7
4 5 5 5 5 5 5 5 5 5 6 6 6 6 6 6 6 5 5 6 6 6 5 4 5 6 7 8 8 8 8 8 7 6 6 8 7 6
4 6 6 6 6 5 5 5 5 5 6 6 6 7 6 7 6 6 5 6 7 7 6 5 5 5 6 6 6 8 8 8 7 6 7 8 8 7
5 6 6 6 6 5 6 6 6 5 5 6 6 7 7 7 6 6 6 6 7 7 6 5 5 6 7 8 5 6 7 7 7 6 7 8 8 7
5 6 6 6 6 6 6 6 6 6 6 6 6 7 7 7 7 7 6 7 7 7 6 6 6 6 7 8 7 6 7 7 7 7 7 7 7 7
5 6 6 6 6 6 6 6 6 6 6 6 6 6 6 6 6 7 7 7 7 7 7 6 5 6 6 6 6 6 5 4 6 7 7 7 7 7
6 6 6 6 6 6 6 6 6 6 6 5 5 6 6 6 7 8 7 7 7 7 7 5 4 5 6 7 7 7 6 5 5 8 9 8 6 6
5 5 5 6 6 6 6 6 6 6 5 5 5 6 6 6 6 6 6 6 6 6 6 5 4 5 5 6 7 7 7 7 6 6 6 8 10 10
Wind_Direction
254 247 255 263 258 261 264 267 273 277 270 238 235 216 235 235 199 236 235 193 205 211 213 216 221 226 232 235 236 241 242 236 233 232 231 228 229 233
251 264 265 267 268 260 258 259 262 273 277 279 256 248 262 257 208 238 238 197 204 208 217 221 225 227 228 232 237 239 239 237 234 234 237 237 234 235
251 248 253 267 270 266 256 254 257 261 265 270 265 246 243 263 248 247 242 235 215 199 212 223 228 230 232 235 238 240 240 240 238 237 238 238 238 239
257 259 259 258 257 265 264 260 259 260 261 269 268 256 245 248 252 255 252 244 247 189 201 216 222 229 235 238 241 243 243 242 240 239 239 239 240 242
257 257 260 262 261 263 263 263 261 258 257 262 264 260 254 250 253 253 252 250 253 212 198 210 220 228 234 236 240 243 244 242 241 241 241 241 242 241
257 256 258 261 262 263 260 263 267 266 257 258 262 258 250 245 249 254 252 240 248 248 231 224 218 220 228 230 234 239 240 239 239 241 241 242 242 242
256 256 257 267 285 278 282 280 274 268 264 260 259 261 259 257 255 258 261 260 249 246 251 245 229 231 231 227 226 231 236 237 238 238 239 240 243 244
259 261 257 243 243 235 255 269 278 270 273 270 265 265 264 263 267 265 264 262 265 243 250 259 250 249 243 240 205 211 227 234 237 238 239 240 242 244
260 262 269 266 254 262 240 227 239 245 255 266 271 271 272 271 270 265 262 263 268 266 256 262 253 253 253 239 181 203 219 227 232 235 238 240 241 244
255 254 260 268 269 273 272 270 266 254 246 249 265 270 272 275 266 263 265 259 261 256 250 264 260 258 261 246 196 204 217 226 230 234 238 242 246 246
254 254 257 258 256 268 267 270 273 273 247 241 253 263 274 268 267 266 259 256 262 260 243 260 268 266 262 254 221 203 215 222 227 232 238 242 247 247
256 254 250 255 241 236 258 266 268 273 280 269 254 252 254 243 229 240 254 258 267 267 238 250 267 273 267 255 250 229 228 224 224 228 231 235 239 248
269 263 252 190 218 234 253 263 269 278 278 275 271 266 260 256 243 238 248 256 264 265 265 246 265 263 266 272 265 256 252 254 241 237 228 224 225 236
269 271 268 173 216 237 248 264 270 268 269 273 273 271 269 267 262 256 249 254 262 269 274 266 266 267 266 270 275 268 261 260 259 261 254 222 221 228
271 303 289 234 231 233 235 243 249 256 264 267 269 271 271 272 268 256 251 248 251 256 258 257 262 265 263 268 274 278 278 271 259 261 261 255 252 248
260 250 226 231 239 252 242 233 242 257 265 267 271 273 274 269 262 263 263 262 263 263 247 244 251 258 261 265 271 274 274 274 268 263 265 264 258 250
253 251 254 251 246 246 251 252 253 249 251 260 267 270 269 267 266 264 265 270 268 272 270 252 246 248 256 262 265 268 269 270 271 266 262 267 267 260
239 251 254 256 258 260 260 258 256 260 264 266 268 269 270 270 269 266 265 264 266 267 269 267 261 261 260 255 247 268 271 273 274 267 261 265 270 270
231 252 260 265 269 269 267 268 267 269 271 269 271 273 275 274 274 270 266 264 265 267 268 266 260 261 266 271 261 234 266 272 271 272 268 266 270 274
246 258 262 265 266 268 269 270 271 271 266 267 272 273 272 273 274 272 268 270 271 270 268 265 260 260 266 275 282 278 248 265 275 276 277 277 276 274
256 260 265 268 268 269 272 273 274 274 273 272 273 275 277 276 275 275 273 263 264 267 267 266 263 253 266 273 273 272 271 243 263 275 279 277 280 278
273 274 275 277 276 277 277 277 277 275 275 274 279 279 277 276 273 272 273 272 267 266 270 271 261 255 260 264 270 275 275 270 251 245 247 253 273 279
279 283 286 284 280 277 275 271 270 272 273 275 276 275 275 274 272 272 272 275 277 271 269 269 267 266 267 267 272 275 275 273 267 260 255 224 230 244
Height
1542 1541 1541 1541 1541 1540 1540 1540 1541 1539 1538 1538 1538 1536 1536 1535 1533 1533 1532 1531 1530 1530 1529 1528 1527 1527 1526 1526 1525 1524 1524 1523 1523 1523 1523 1523 1524 1524
1539 1538 1538 1539 1539 1538 1538 1537 1537 1537 1535 1535 1535 1534 1533 1532 1531 1529 1529 1528 1527 1526 1526 1525 1524 1524 1523 1522 1522 1521 1521 1520 1520 1520 1520 1520 1521 1521
1537 1536 1536 1535 1535 1535 1535 1534 1534 1534 1532 1532 1532 1530 1529 1528 1528 1527 1526 1525 1524 1523 1523 1522 1521 1520 1520 1519 1518 1518 1517 1517 1516 1516 1516 1517 1517 1517
1534 1534 1533 1533 1532 1532 1531 1531 1530 1530 1529 1528 1528 1527 1525 1525 1524 1523 1524 1523 1522 1520 1519 1519 1518 1517 1516 1516 1515 1514 1514 1513 1513 1513 1512 1513 1513 1513
1531 1531 1530 1530 1529 1529 1528 1527 1527 1527 1525 1525 1524 1523 1522 1521 1521 1520 1520 1518 1518 1517 1516 1515 1514 1514 1513 1512 1511 1511 1510 1509 1509 1509 1509 1508 1508 1508
1528 1527 1527 1526 1525 1525 1524 1523 1523 1522 1522 1521 1520 1519 1518 1517 1517 1517 1516 1515 1514 1514 1513 1512 1511 1510 1509 1508 1508 1507 1506 1505 1505 1504 1504 1504 1504 1503
1524 1523 1523 1522 1521 1521 1521 1520 1520 1519 1519 1517 1516 1516 1515 1513 1513 1512 1512 1511 1510 1510 1509 1508 1507 1506 1505 1504 1504 1503 1502 1501 1501 1500 1500 1499 1499 1499
1520 1520 1519 1518 1517 1517 1516 1515 1515 1515 1515 1514 1513 1512 1510 1510 1509 1508 1508 1507 1507 1506 1505 1504 1504 1502 1502 1501 1500 1499 1498 1497 1497 1496 1495 1495 1494 1494
1516 1515 1515 1515 1514 1513 1512 1511 1510 1509 1509 1509 1508 1507 1506 1505 1504 1504 1503 1503 1502 1502 1501 1500 1499 1498 1498 1497 1495 1494 1494 1493 1492 1492 1491 1490 1489 1489
1512 1511 1510 1510 1510 1508 1508 1507 1506 1505 1504 1503 1503 1502 1501 1500 1499 1499 1498 1498 1497 1496 1496 1496 1495 1494 1494 1492 1491 1490 1489 1489 1488 1487 1486 1486 1485 1484
1507 1507 1506 1505 1505 1504 1503 1502 1501 1501 1500 1499 1498 1497 1496 1495 1495 1495 1494 1494 1493 1493 1492 1492 1491 1490 1489 1488 1487 1486 1485 1484 1483 1483 1482 1481 1480 1479
1503 1503 1502 1501 1501 1500 1499 1498 1497 1497 1496 1494 1493 1492 1491 1490 1490 1490 1489 1490 1489 1489 1488 1487 1487 1486 1485 1484 1483 1482 1481 1480 1479 1478 1477 1477 1476 1475
1500 1499 1498 1497 1496 1496 1496 1495 1494 1493 1491 1490 1489 1488 1487 1486 1486 1485 1485 1485 1485 1484 1484 1483 1482 1482 1481 1480 1479 1478 1477 1476 1475 1473 1473 1472 1471 1470
1496 1495 1495 1493 1493 1492 1492 1491 1490 1489 1488 1487 1486 1485 1484 1483 1482 1481 1480 1480 1479 1479 1479 1478 1478 1477 1476 1475 1474 1473 1472 1471 1470 1469 1468 1467 1466 1465
1492 1491 1491 1490 1489 1488 1488 1487 1486 1485 1484 1483 1482 1482 1481 1480 1479 1477 1476 1475 1475 1474 1474 1473 1472 1472 1471 1470 1469 1469 1468 1467 1466 1465 1464 1463 1462 1461
1488 1487 1487 1486 1485 1484 1484 1483 1482 1481 1481 1480 1479 1478 1477 1476 1475 1474 1472 1471 1470 1469 1468 1468 1467 1466 1465 1465 1464 1463 1463 1462 1461 1460 1459 1458 1457 1456
1484 1484 1483 1482 1481 1480 1479 1479 1478 1477 1476 1475 1475 1474 1473 1472 1471 1469 1468 1467 1466 1465 1464 1463 1462 1461 1460 1459 1459 1458 1457 1456 1456 1455 1453 1452 1452 1451
1480 1480 1479 1478 1477 1477 1476 1475 1474 1473 1472 1472 1471 1470 1468 1467 1466 1465 1464 1463 1461 1460 1460 1459 1458 1457 1455 1454 1453 1452 1452 1451 1451 1450 1448 1447 1446 1446
1476 1476 1475 1474 1474 1473 1472 1471 1470 1469 1468 1467 1466 1465 1464 1462 1461 1460 1458 1457 1456 1455 1454 1454 1452 1451 1450 1449 1448 1448 1447 1446 1446 1445 1444 1443 1441 1440
1472 1471 1471 1470 1469 1469 1468 1467 1466 1465 1463 1462 1461 1460 1459 1457 1456 1454 1453 1452 1451 1450 1449 1448 1447 1446 1445 1445 1444 1442 1442 1442 1441 1440 1439 1437 1436 1435
1468 1467 1466 1466 1465 1464 1463 1461 1460 1459 1458 1457 1456 1454 1453 1452 1450 1449 1448 1446 1446 1445 1444 1443 1441 1441 1440 1440 1439 1438 1437 1436 1435 1435 1434 1433 1432 1431
1464 1463 1462 1461 1460 1459 1458 1456 1455 1454 1453 1452 1451 1450 1448 1447 1445 1444 1443 1442 1440 1439 1438 1438 1437 1436 1436 1435 1434 1433 1433 1432 1430 1430 1429 1428 1427 1426
1459 1458 1457 1456 1455 1454 1453 1451 1450 1449 1448 1447 1445 1444 1443 1441 1440 1439 1438 1437 1435 1433 1433 1433 1432 1432 1431 1431 1430 1429 1428 1427 1426 1425 1425 1423 1423 1422